Location: Unspecified
(40.7945°N, 111.1337°W)
Time: 14:13:13
(UTC-06:00)

ISS - Pass Details

Date: 30 March 2019
Orbit: 408 x 410 km, 51.6° (Epoch: 24 April)

Event Time Altitude Azimuth Distance (km) Brightness Sun altitude
Rises 21:34:07 0° 309° (NW) 2,332 1.4 -20.3°
Reaches altitude 10° 21:36:57 10° 335° (NNW) 1,469 -0.3 -20.8°
Maximum altitude 21:38:50 14° 10° (N) 1,235 -1.2 -21.1°
Enters shadow 21:39:16 14° 20° (NNE) 1,249 -1.3 -21.2°
